Location: St. Louis
(38.6270°N, 90.1994°W)
Time: 00:42:30
(UTC-05:00)

AO-7 - Visible Passes

Search period start: 10 August 2022 00:00
Search period end: 20 August 2022 00:00
Orbit: 1440 x 1458 km, 101.9° (Epoch: 09 August)

Date Brightness Start Highest point End Pass type
(mag) Time Alt. Az. Time Alt. Az. Time Alt. Az.
10 Aug ? 04:05:51 10° NE 04:11:46 21° E 04:17:37 10° SE visible
11 Aug ? 04:57:11 10° NNE 05:05:11 47° ESE 05:13:07 10° S visible
12 Aug ? 03:59:14 10° NE 04:04:36 18° E 04:09:56 10° SE visible
13 Aug ? 04:50:15 10° NNE 04:58:06 42° E 05:05:52 10° S visible
14 Aug ? 03:52:43 10° NE 03:57:26 16° E 04:02:07 10° SE visible
14 Aug ? 05:42:43 10° NNE 05:51:09 87° ESE 05:59:31 10° SSW visible
15 Aug ? 04:43:21 10° NNE 04:51:00 38° E 04:58:35 10° SSE visible
16 Aug ? 03:46:23 10° ENE 03:50:16 14° E 03:54:08 10° ESE visible
16 Aug ? 05:35:41 10° NNE 05:44:07 80° ESE 05:52:28 10° SSW visible
17 Aug ? 04:36:28 10° NE 04:43:53 34° E 04:51:15 10° SSE visible
18 Aug ? 03:40:22 10° ENE 03:43:05 12° E 03:45:47 10° ESE visible
18 Aug ? 05:28:40 10° NNE 05:37:03 73° ESE 05:45:22 10° S visible
19 Aug ? 04:29:37 10° NE 04:36:46 31° E 04:43:52 10° SSE visible
